Location: DARK SKY Beskydy - Park tmavé oblohy, www.darkskybeskydy.cz
(49.4926°N, 18.5016°E)
Time: 09:39:21
(UTC+01:00)

Tiros 1 despin weight - All Passes

Search period start: 25 February 2024 00:00
Search period end: 06 March 2024 00:00
Orbit: 581 x 624 km, 48.2° (Epoch: 24 February)

Date Brightness Start Highest point End Pass type
(mag) Time Alt. Az. Time Alt. Az. Time Alt. Az.
25 Feb - 10:01:59 10° SSW 10:05:46 29° SSE 10:09:32 10° E daylight
25 Feb - 11:42:16 10° WSW 11:46:34 67° S 11:50:53 10° E daylight
25 Feb - 13:23:21 10° W 13:27:40 70° S 13:32:00 10° ESE daylight
25 Feb - 15:04:37 10° W 15:08:32 33° SSW 15:12:27 10° SE daylight
26 Feb - 08:34:42 10° SSE 08:36:42 13° SE 08:38:41 10° ESE daylight
26 Feb - 10:13:00 10° SW 10:17:06 41° SSE 10:21:11 10° E daylight
26 Feb - 11:53:43 10° W 11:58:03 75° S 12:02:24 10° E daylight
26 Feb - 13:34:51 10° W 13:39:08 59° SSW 13:43:24 10° ESE daylight
26 Feb - 15:16:23 10° W 15:19:49 23° SW 15:23:15 10° SSE daylight
27 Feb - 08:44:38 10° SSW 08:47:52 20° SE 08:51:05 10° E daylight
27 Feb - 10:24:14 10° WSW 10:28:29 55° SSE 10:32:44 10° E daylight
27 Feb - 12:05:12 10° W 12:09:32 76° S 12:13:53 10° E daylight
27 Feb - 13:46:23 10° W 13:50:32 45° SSW 13:54:41 10° SE daylight
27 Feb - 15:28:33 10° WSW 15:31:00 15° SW 15:33:27 10° S daylight
28 Feb - 08:55:17 10° SSW 08:59:06 30° SSE 09:02:54 10° E daylight
28 Feb - 10:35:36 10° WSW 10:39:55 68° S 10:44:14 10° E daylight
28 Feb - 12:16:41 10° W 12:21:01 70° S 12:25:20 10° ESE daylight
28 Feb - 13:57:59 10° W 14:01:52 32° SSW 14:05:45 10° SE daylight
29 Feb - 07:27:50 10° SSE 07:29:59 13° SE 07:32:08 10° ESE daylight
29 Feb - 09:06:17 10° SW 09:10:24 42° SSE 09:14:31 10° E daylight
29 Feb - 10:47:02 10° W 10:51:22 75° S 10:55:42 10° E daylight
29 Feb - 12:28:10 10° W 12:32:26 58° SSW 12:36:42 10° ESE daylight
29 Feb - 14:09:44 10° W 14:13:06 22° SW 14:16:29 10° SSE daylight
01 Mar - 07:37:50 10° SSW 07:41:08 21° SE 07:44:25 10° E daylight
01 Mar - 09:17:29 10° WSW 09:21:46 56° SSE 09:26:02 10° E daylight
01 Mar - 10:58:29 10° W 11:02:50 76° S 11:07:10 10° E daylight
01 Mar - 12:39:41 10° W 12:43:49 44° SSW 12:47:57 10° SE daylight
01 Mar - 14:21:55 10° WSW 14:24:16 14° SW 14:26:36 10° S daylight
02 Mar - 07:48:29 10° SSW 07:52:20 31° SSE 07:56:12 10° E daylight
02 Mar - 09:28:50 10° WSW 09:33:11 68° S 09:37:29 10° E daylight
02 Mar - 11:09:57 10° W 11:14:17 69° S 11:18:35 10° ESE daylight
02 Mar - 12:51:15 10° W 12:55:07 32° SSW 12:58:58 10° SE daylight
03 Mar - 06:20:54 10° S 06:23:12 14° SE 06:25:29 10° ESE daylight
03 Mar - 07:59:28 10° SW 08:03:38 43° SSE 08:07:46 10° E daylight
03 Mar - 09:40:15 10° W 09:44:36 75° S 09:48:57 10° E daylight
03 Mar - 11:21:24 10° W 11:25:40 57° SSW 11:29:55 10° ESE daylight
03 Mar - 13:02:59 10° W 13:06:19 22° SW 13:09:38 10° SSE daylight
04 Mar - 06:30:56 10° SSW 06:34:19 22° SE 06:37:41 10° E daylight
04 Mar - 08:10:40 10° WSW 08:14:58 57° SSE 08:19:15 10° E daylight
04 Mar - 09:51:41 10° W 09:56:03 75° S 10:00:22 10° E daylight
04 Mar - 11:32:53 10° W 11:37:01 43° SSW 11:41:07 10° SE daylight
04 Mar - 13:15:12 10° WSW 13:17:26 14° SW 13:19:40 10° S daylight
05 Mar - 06:41:35 10° SW 06:45:30 32° SSE 06:49:24 10° E daylight
05 Mar - 08:21:59 10° WSW 08:26:21 69° S 08:30:40 10° E daylight
05 Mar - 10:03:06 10° W 10:07:26 69° S 10:11:46 10° ESE daylight
05 Mar - 11:44:25 10° W 11:48:16 31° SSW 11:52:06 10° SSE daylight
